Orbital Elements at Epoch 2459200.5 (2020-Dec-17.0) TDB
Reference: JPL 5 (heliocentric ecliptic J2000)
Element | Value | Uncertainty (1-sigma) | Units |
e | .303244924310805 | 0.00037724 | |
a | 1.344789806731661 | 0.00065258 | au |
q | .9369891235753767 | 5.2636e-05 | au |
i | 3.205464644571283 | 0.0045007 | deg |
node | 281.8631878356374 | 0.0014685 | deg |
peri | 224.0358568881528 | 0.0025878 | deg |
M | 196.64063568391 | 0.1416 | deg |
tp | 2459458.976803178787 (2021-Sep-01.47680318) | 0.41219 | TDB |
period | 569.6131931825722 1.56 | 0.41462 0.001135 | d yr |
n | .6320078332255428 | 0.00046004 | deg/d |
Q | 1.752590489887946 | 0.00085047 | au |
|
| | Orbit Determination Parameters
Additional Information
|